Location: Casalecchio di Reno
(44.4760°N, 11.2757°E)
Time: 22:23:44
(UTC+02:00)

QB50P2 - Pass Details

Date: 25 June 2024
Orbit: 561 x 578 km, 98.0° (Epoch: 17 July)

Event Time Altitude Azimuth Distance (km) Brightness Sun altitude
Rises 04:01:50 0° 13° (NNE) 2,766 ? -12.5°
Reaches altitude 10° 04:03:59 10° 14° (NNE) 1,864 ? -12.2°
Maximum altitude 04:08:02 84° 103° (ESE) 571 ? -11.8°
Enters shadow 04:11:32 13° 192° (SSW) 1,644 ? -11.4°
